BG5HLN-13 Weather Reports


Display with metric or nautical units.
time (UTC)temp
F
wind
direction
speed
MPH
gust
MPH
rain 1hr
in
rain 24hr
in
rain mn
in
humidity
%
barometer
mb
20260509043006 77 0 0.0 0.0 0.00 0.00 0.00 50 1018.7
20260509042006 76 0 0.0 0.0 0.00 0.00 0.00 51 1018.8
20260509041005 76 0 0.0 0.0 0.00 0.00 0.00 52 1019.0
20260509040006 76 315 0.0 0.0 0.00 0.00 0.00 55 1019.3
20260509035006 75 0 0.0 0.0 0.00 0.00 0.00 57 1019.5
20260509034005 75 270 0.0 0.0 0.00 0.00 0.00 57 1019.6
20260509032005 74 0 0.0 0.0 0.00 0.00 0.00 56 1019.9
20260509031005 74 0 0.0 0.0 0.00 0.00 0.00 59 1020.0
20260509030005 73 0 0.0 0.0 0.00 0.00 0.00 59 1020.1
20260509025005 73 0 0.0 0.0 0.00 0.00 0.00 62 1020.0
20260509024006 72 270 0.0 0.0 0.00 0.00 0.00 63 1020.1
20260509023005 72 0 0.0 0.0 0.00 0.00 0.00 61 1020.1
20260509022005 71 270 0.0 0.0 0.00 0.00 0.00 60 1020.3
20260509021004 71 0 0.0 0.0 0.00 0.00 0.00 59 1020.4
20260509020005 71 0 0.0 0.0 0.00 0.00 0.00 61 1020.5
20260509015005 71 0 0.0 0.0 0.00 0.00 0.00 61 1020.6
20260509014005 70 270 0.0 0.0 0.00 0.00 0.00 61 1020.7
20260509013006 70 0 0.0 0.0 0.00 0.00 0.00 60 1020.9
20260509012005 69 0 0.0 0.0 0.00 0.00 0.00 62 1020.8
20260509011005 70 0 0.0 0.0 0.00 0.00 0.00 59 1020.8
20260509010004 70 0 0.0 0.0 0.00 0.00 0.00 58 1020.9
20260509005005 69 0 0.0 0.0 0.00 0.00 0.00 57 1020.8
20260509004004 69 270 0.0 0.0 0.00 0.00 0.00 57 1020.8
20260509003005 69 0 0.0 0.0 0.00 0.00 0.00 60 1020.6
20260509002005 68 0 0.0 0.0 0.00 0.00 0.00 60 1020.5
20260509001004 68 0 0.0 0.0 0.00 0.00 0.00 59 1020.5
20260509000005 68 0 0.0 0.0 0.00 0.00 0.00 60 1020.3
20260508235004 68 0 0.0 0.0 0.00 0.00 0.00 61 1020.2
20260508234005 68 0 0.0 0.0 0.00 0.00 0.00 59 1020.1
20260508233005 68 0 0.0 0.0 0.00 0.00 0.00 59 1020.1
20260508232004 68 0 0.0 0.0 0.00 0.00 0.00 59 1019.9
20260508231005 68 0 0.0 0.0 0.00 0.00 0.00 61 1019.9
20260508230004 67 0 0.0 0.0 0.00 0.00 0.00 62 1020.0
20260508225004 67 270 0.0 0.0 0.00 0.00 0.00 61 1019.9
20260508224004 67 0 0.0 0.0 0.00 0.00 0.00 62 1020.0
20260508223005 67 270 0.0 0.0 0.00 0.00 0.00 63 1020.1
20260508222004 67 0 0.0 0.0 0.00 0.00 0.00 65 1020.2
20260508221004 67 0 0.0 0.0 0.00 0.00 0.00 65 1020.0
20260508220004 67 0 0.0 0.0 0.00 0.00 0.00 66 1020.0
20260508215004 67 0 0.0 0.0 0.00 0.00 0.00 66 1020.0
20260508214004 66 0 0.0 0.0 0.00 0.00 0.00 66 1019.9
20260508213005 67 0 0.0 0.0 0.00 0.00 0.00 67 1019.7
20260508212004 66 0 0.0 0.0 0.00 0.00 0.00 68 1019.8
20260508211004 67 0 0.0 0.0 0.00 0.00 0.00 69 1019.7
20260508210007 67 0 0.0 0.0 0.00 0.00 0.00 68 1019.5
20260508210004 67 0 0.0 0.0 0.00 0.00 0.00 68 1019.5
20260508205004 67 0 0.0 0.0 0.00 0.00 0.00 68 1019.5
20260508204005 67 0 0.0 0.0 0.00 0.00 0.00 67 1019.5
20260508203003 66 0 0.0 0.0 0.00 0.00 0.00 68 1019.3
20260508202004 66 0 0.0 0.0 0.00 0.00 0.00 68 1019.5
20260508201004 66 270 0.0 0.0 0.00 0.00 0.00 68 1019.4
20260508200004 66 270 0.0 0.0 0.00 0.00 0.00 67 1019.5
20260508195004 67 0 0.0 0.0 0.00 0.00 0.00 66 1019.4
20260508194003 67 270 0.0 0.0 0.00 0.00 0.00 66 1019.6
20260508193004 67 0 0.0 0.0 0.00 0.00 0.00 63 1019.4
20260508192003 67 270 0.0 0.0 0.00 0.00 0.00 66 1019.4
20260508191003 67 270 0.0 0.0 0.00 0.00 0.00 64 1019.5
20260508190006 67 270 0.0 0.0 0.00 0.00 0.00 64 1019.3
20260508190004 67 0 0.0 0.0 0.00 0.00 0.00 64 1019.3
20260508185003 67 270 0.0 0.0 0.00 0.00 0.00 63 1019.4
20260508184004 67 270 0.0 0.0 0.00 0.00 0.00 64 1019.4
20260508183004 67 0 0.0 0.0 0.00 0.00 0.00 64 1019.5
20260508182003 67 270 0.0 0.0 0.00 0.00 0.00 65 1019.4
20260508181003 67 270 0.0 0.0 0.00 0.00 0.00 63 1019.4
20260508180003 67 0 0.0 0.0 0.00 0.00 0.00 63 1019.6
20260508175003 67 270 0.0 0.0 0.00 0.00 0.00 63 1019.7
20260508174003 67 270 0.0 0.0 0.00 0.00 0.00 64 1019.7
20260508173003 67 0 0.0 0.0 0.00 0.00 0.00 63 1019.6
20260508172003 68 0 0.0 0.0 0.00 0.00 0.00 62 1019.6
20260508171002 68 0 0.0 0.0 0.00 0.00 0.00 61 1020.0
20260508170003 68 0 0.0 0.0 0.00 0.00 0.00 62 1019.9
20260508165004 68 0 0.0 0.0 0.00 0.00 0.00 61 1020.0
20260508164002 68 0 0.0 0.0 0.00 0.00 0.00 60 1020.0
20260508163003 68 270 0.0 0.0 0.00 0.00 0.00 59 1019.8
20260508162002 68 0 0.0 0.0 0.00 0.00 0.00 59 1020.1
20260508161002 68 315 0.0 0.0 0.00 0.00 0.00 59 1020.1
20260508160003 68 0 0.0 0.0 0.00 0.00 0.00 59 1020.1
20260508155002 68 0 0.0 0.0 0.00 0.00 0.00 60 1020.2
20260508154002 68 0 0.0 0.0 0.00 0.00 0.00 60 1020.2
20260508153003 69 0 0.0 0.0 0.00 0.00 0.00 61 1020.5
20260508152002 68 270 0.0 0.0 0.00 0.00 0.00 61 1020.3
20260508151002 68 0 0.0 0.0 0.00 0.00 0.00 61 1020.4
20260508150003 69 0 0.0 0.0 0.00 0.00 0.00 61 1020.6
20260508145002 69 270 0.0 0.0 0.00 0.00 0.00 61 1020.7
20260508144002 69 0 0.0 0.0 0.00 0.00 0.00 61 1020.9
20260508143002 69 0 0.0 0.0 0.00 0.00 0.00 60 1021.1
20260508142002 69 270 0.0 0.0 0.00 0.00 0.00 60 1021.2
20260508141003 69 315 0.0 0.0 0.00 0.00 0.00 60 1021.3
20260508140001 69 0 0.0 0.0 0.00 0.00 0.00 60 1021.3
20260508135002 69 0 0.0 0.0 0.00 0.00 0.00 60 1021.3
20260508134002 69 0 0.0 0.0 0.00 0.00 0.00 61 1021.2
20260508133002 69 270 0.0 0.0 0.00 0.00 0.00 62 1021.0
20260508132002 69 0 0.0 0.0 0.00 0.00 0.00 62 1020.8
20260508131002 69 0 0.0 0.0 0.00 0.00 0.00 63 1020.6
20260508130002 68 270 0.0 0.0 0.00 0.00 0.00 63 1020.3
20260508125001 69 270 0.0 0.0 0.00 0.00 0.00 62 1020.1
20260508124002 69 0 0.0 0.0 0.00 0.00 0.00 62 1020.2
20260508123002 69 0 0.0 0.0 0.00 0.00 0.00 62 1020.2
20260508122001 69 315 0.0 0.0 0.00 0.00 0.00 62 1020.3
20260508121002 69 0 0.0 0.0 0.00 0.00 0.00 62 1020.0
20260508120001 69 0 0.0 0.0 0.00 0.00 0.00 61 1020.2
20260508115002 70 0 0.0 0.0 0.00 0.00 0.00 60 1020.2
20260508114001 70 0 0.0 0.0 0.00 0.00 0.00 60 1020.3
20260508113001 70 0 0.0 0.0 0.00 0.00 0.00 60 1020.2
20260508112002 70 0 0.0 0.0 0.00 0.00 0.00 59 1020.2
20260508111001 70 0 0.0 0.0 0.00 0.00 0.00 60 1020.0
20260508110002 70 0 0.0 0.0 0.00 0.00 0.00 59 1019.9
20260508105002 71 0 0.0 0.0 0.00 0.00 0.00 60 1019.8
20260508104001 71 0 0.0 0.0 0.00 0.00 0.00 59 1019.8
20260508103002 71 0 0.0 0.0 0.00 0.00 0.00 59 1020.0
20260508102001 71 0 0.0 0.0 0.00 0.00 0.00 58 1019.7
20260508101001 71 270 0.0 0.0 0.00 0.00 0.00 57 1019.6
20260508100001 72 0 0.0 0.0 0.00 0.00 0.00 58 1019.5
20260508095000 72 0 0.0 0.0 0.00 0.00 0.00 57 1019.6
20260508094001 72 0 0.0 0.0 0.00 0.00 0.00 58 1019.4
20260508093002 73 0 0.0 0.0 0.00 0.00 0.00 57 1019.4
20260508092000 73 0 0.0 0.0 0.00 0.00 0.00 56 1019.4
20260508091001 73 0 0.0 0.0 0.00 0.00 0.00 56 1019.3
20260508090000 73 0 0.0 0.0 0.00 0.00 0.00 56 1019.1
20260508085000 73 0 0.0 0.0 0.00 0.00 0.00 56 1019.1
20260508084001 74 0 0.0 0.0 0.00 0.00 0.00 55 1019.2
20260508083001 74 0 0.0 0.0 0.00 0.00 0.00 55 1019.1
20260508082000 74 0 0.0 0.0 0.00 0.00 0.00 57 1019.0
20260508081001 74 0 0.0 0.0 0.00 0.00 0.00 57 1018.9
20260508080003 74 0 0.0 0.0 0.00 0.00 0.00 57 1019.0
20260508080001 74 0 0.0 0.0 0.00 0.00 0.00 57 1019.0
20260508075001 74 0 0.0 0.0 0.00 0.00 0.00 57 1019.1
20260508074000 74 0 0.0 0.0 0.00 0.00 0.00 57 1019.2
20260508073003 74 315 0.0 0.0 0.00 0.00 0.00 56 1019.3
20260508073000 74 0 0.0 0.0 0.00 0.00 0.00 56 1019.3
20260508072001 74 0 0.0 0.0 0.00 0.00 0.00 56 1019.3
20260508071000 74 0 0.0 0.0 0.00 0.00 0.00 55 1019.2
20260508070000 74 0 0.0 0.0 0.00 0.00 0.00 55 1019.3
20260508065000 74 0 0.0 0.0 0.00 0.00 0.00 56 1019.2
20260508064000 74 0 0.0 0.0 0.00 0.00 0.00 55 1019.1
20260508063001 74 0 0.0 0.0 0.00 0.00 0.00 56 1019.4
20260508062000 75 0 0.0 0.0 0.00 0.00 0.00 55 1018.8
20260508061000 75 0 0.0 0.0 0.00 0.00 0.00 55 1019.2
20260508055959 74 0 0.0 0.0 0.00 0.00 0.00 55 1019.3
20260508055000 74 0 0.0 0.0 0.00 0.00 0.00 54 1019.5
20260508054000 74 0 0.0 0.0 0.00 0.00 0.00 51 1019.6
20260508053002 74 0 0.0 0.0 0.00 0.00 0.00 51 1019.8
20260508053000 74 315 0.0 0.0 0.00 0.00 0.00 51 1019.8
20260508052000 74 270 0.0 0.0 0.00 0.00 0.00 51 1020.2
20260508050959 74 0 0.0 0.0 0.00 0.00 0.00 49 1020.5
20260508050000 74 0 0.0 0.0 0.00 0.00 0.00 48 1020.4
20260508045000 74 0 0.0 0.0 0.00 0.00 0.00 48 1020.5
20260508044000 74 0 0.0 0.0 0.00 0.00 0.00 49 1020.1